Regional Weather Roundup
Issued by NWS New Orleans/Baton Rouge, LA

Home | Current Version | Previous Version | Text Only | Print | Product List | Glossary On
Versions: 1 2 3 4 5 6 7 8 9 10 11 12 13 14 15 16 17 18 19 20 21 22 23 24 25 26 27 28 29 30 31 32 33 34 35 36 37 38 39 40 41 42 43 44 45 46 47 48 49 50
000
ASUS44 KLIX 281712
RWRLIX
NEW ORLEANS REGIONAL WEATHER ROUNDUP
NATIONAL WEATHER SERVICE NEW ORLEANS LA
1200 PM CDT FRI AUG 28 2015

NOTE: "FAIR" INDICATES FEW OR NO CLOUDS BELOW 12,000 FEET WITH NO
      SIGNIFICANT WEATHER AND/OR OBSTRUCTIONS TO VISIBILITY.
      SKY/WX - SKY CONDITION AND SIGNIFICANT WEATHER.
      TMP - AIR TEMPERATURE.     DP    - DEWPOINT TEMPERATURE.
      RH  - RELATIVE HUMIDITY.   PRES  - PRESSURE.
      HI  - HEAT INDEX.          WCI   - WIND CHILL INDEX.

*  THESE STATIONS ARE NOT NWS OR FAA STATIONS AND ARE NOT UNDER
   NWS QUALITY CONTROL.

LAZ038-040-048-061>063-065>067-069-281800-
SOUTHEAST LOUISIANA

CITY           SKY/WX    TMP DP  RH WIND       PRES   REMARKS
N.O. AUDUBON   NOT AVBL
N.O. INTL ARPT MOSUNNY   86  66  51 N10       30.02F
N.O. LAKEFRONT MOSUNNY   84  68  58 N8        30.03F
N.O. DOWNTOWN*   N/A     86  66  51 N8        30.03S
RESERVE*         N/A     87  65  46 N8        30.03F
SLIDELL        MOSUNNY   86  70  58 VRB3      30.01F
BATON ROUGE    SUNNY     87  62  43 VRB5      30.04F
BOOTHVILLE     SUNNY     89  63  41 VRB5      30.01S
BELLE CHASSE   MOSUNNY   86  68  54 VRB5      30.01F
BOGALUSA*      NOT AVBL
GALLIANO*      SUNNY     88  66  48 N5        30.01F
NEW ROADS*       N/A     85  60  43 N6        30.04F
GONZALES*        N/A     85  62  45 NE5       30.03F
HAMMOND*       SUNNY     90  59  35 NE6       30.04F
HOUMA*         NOT AVBL
PORT FOURCHON* SUNNY     84  66  54 N7        30.02F

$$

MSZ070-080>082-281800-
SOUTHERN MISSISSIPPI

CITY           SKY/WX    TMP DP  RH WIND       PRES   REMARKS
MCCOMB         SUNNY     85  63  47 SE6       30.05F
GULFPORT       MOSUNNY   86  68  54 SE12      30.01F
BILOXI         SUNNY     86  70  58 SE12      30.02S
PASCAGOULA     MOSUNNY   87  69  54 SE10      30.03R
STENNIS ARPT*  MOSUNNY   86  63  45 VRB5      30.02F

$$

COASTAL OBSERVATIONS
LAKE AND NEARSHORE STATIONS

STATION/POSITION TIME  TEMP    WIND        PRES    WAVE
                       AIR SEA DIR/SP/G            HT/PER
                 (UTC) (F)     (DEG/KT/KT) (MB)    (FT/S)
PASCAGOULA       1600   84     130/  9/ 13 1016.4
WAVELAND YACHT   1600   81 80  140/  3/  3 1017.0
GRAND ISLE       1600   82 83   10/  4/  6 1016.8
SOUTHWEST PASS   1600   84 86  200/  4/  6 1016.7
NEW CANAL        1600   78 83   30/  6/  7 1016.2
SHELL BEACH      1600   79 82  360/  7/ 10 1016.1

OFFSHORE STATIONS

STATION/POSITION TIME  TEMP    WIND        PRES    WAVE
                       AIR SEA DIR/SP/G            HT/PER
                 (UTC) (F)     (DEG/KT/KT) (MB)    (FT/S)
64 S DAUPHIN ISL 1650   81 86  230/  8/ 10 1016.7    1

$$



USA.gov is the U.S. government's official web portal to all federal, state and local government web resources and services.